TimeCDT,TemperatureF,Dew PointF,Humidity,Sea Level PressureIn,VisibilityMPH,Wind Direction,Wind SpeedMPH,Gust SpeedMPH,PrecipitationIn,Events,Conditions,WindDirDegrees,DateUTC
12:15 AM,46.4,46.4,100,29.74,4.0,NE,8.1,-,N/A,Rain,Light Rain,40,2012-10-14 05:15:00
12:35 AM,46.4,46.4,100,29.73,4.0,NE,6.9,-,N/A,,Drizzle,40,2012-10-14 05:35:00
12:55 AM,46.4,46.4,100,29.75,5.0,ENE,5.8,-,N/A,,Light Drizzle,60,2012-10-14 05:55:00
1:15 AM,46.4,46.4,100,29.73,2.5,NE,6.9,-,0.01,,Heavy Drizzle,50,2012-10-14 06:15:00
1:35 AM,46.4,46.4,100,29.72,3.0,ENE,8.1,-,0.04,,Heavy Drizzle,60,2012-10-14 06:35:00
1:55 AM,46.4,46.4,100,29.73,10.0,East,8.1,-,0.04,,Overcast,80,2012-10-14 06:55:00
2:15 AM,46.4,46.4,100,29.73,5.0,NE,8.1,-,N/A,,Light Drizzle,50,2012-10-14 07:15:00
2:35 AM,46.4,46.4,100,29.72,5.0,ENE,9.2,-,N/A,,Overcast,70,2012-10-14 07:35:00
2:55 AM,46.4,46.4,100,29.72,5.0,NE,9.2,-,N/A,,Overcast,40,2012-10-14 07:55:00
3:15 AM,46.4,46.4,100,29.72,5.0,NE,10.4,-,N/A,,Drizzle,50,2012-10-14 08:15:00
3:35 AM,46.4,46.4,100,29.71,7.0,NE,9.2,-,N/A,,Light Drizzle,50,2012-10-14 08:35:00
3:55 AM,46.4,46.4,100,29.70,4.0,ENE,10.4,-,N/A,Rain,Rain,60,2012-10-14 08:55:00
4:15 AM,46.4,46.4,100,29.69,3.0,NE,10.4,-,N/A,Rain,Light Rain,50,2012-10-14 09:15:00
4:35 AM,46.4,46.4,100,29.69,3.0,NE,8.1,17.3,N/A,Rain,Light Rain,40,2012-10-14 09:35:00
4:55 AM,46.4,46.4,100,29.68,4.0,NE,12.7,-,N/A,,Overcast,50,2012-10-14 09:55:00
5:15 AM,46.4,46.4,100,29.68,3.0,NE,10.4,-,N/A,,Overcast,50,2012-10-14 10:15:00
5:35 AM,46.4,46.4,100,29.68,5.0,ENE,11.5,-,N/A,,Overcast,60,2012-10-14 10:35:00
5:45 AM,46.4,46.4,100,29.69,4.0,NE,12.7,-,N/A,,Overcast,50,2012-10-14 10:45:00
6:45 AM,46.4,46.4,100,29.70,3.0,SSE,4.6,-,N/A,,Drizzle,150,2012-10-14 11:45:00
7:45 AM,44.6,44.6,100,29.70,1.5,North,17.3,-,N/A,,Mostly Cloudy,10,2012-10-14 12:45:00
8:45 AM,44.6,44.6,100,29.63,5.0,NNE,12.7,20.7,N/A,Rain,Rain,30,2012-10-14 13:45:00
9:45 AM,44.6,44.6,100,29.62,2.0,NNE,10.4,17.3,N/A,Rain,Rain,20,2012-10-14 14:45:00
10:45 AM,44.6,44.6,100,29.62,3.0,North,12.7,-,N/A,Rain,Rain,10,2012-10-14 15:45:00
11:50 AM,44.6,44.6,100,29.60,7.0,North,12.7,-,N/A,Rain,Rain,10,2012-10-14 16:50:00
12:45 PM,44.6,44.6,100,29.60,5.0,North,10.4,-,N/A,Rain,Rain,350,2012-10-14 17:45:00
1:50 PM,44.6,44.6,100,29.60,7.0,NNW,11.5,-,N/A,Rain,Light Rain,330,2012-10-14 18:50:00
3:45 PM,44.6,44.6,100,29.62,10.0,NW,12.7,18.4,N/A,Rain,Light Rain,320,2012-10-14 20:45:00
4:55 PM,44.6,44.6,100,29.64,10.0,NW,16.1,-,N/A,,Drizzle,320,2012-10-14 21:55:00
5:45 PM,44.6,44.6,100,29.66,10.0,NW,11.5,20.7,N/A,,Overcast,320,2012-10-14 22:45:00
6:55 PM,44.6,42.8,93,29.70,10.0,NW,13.8,-,N/A,,Overcast,320,2012-10-14 23:55:00
7:50 PM,42.8,42.8,100,29.72,10.0,NW,15.0,19.6,N/A,,Overcast,320,2012-10-15 00:50:00
8:52 PM,42.8,41.0,93,29.74,10.0,NW,11.5,20.7,N/A,,Overcast,320,2012-10-15 01:52:00
9:45 PM,42.8,39.2,87,29.75,10.0,NW,12.7,16.1,N/A,,Overcast,320,2012-10-15 02:45:00
10:15 PM,41.0,39.2,93,29.76,10.0,NW,11.5,20.7,N/A,,Overcast,320,2012-10-15 03:15:00
10:35 PM,41.0,39.2,93,29.76,10.0,NW,12.7,18.4,N/A,,Overcast,320,2012-10-15 03:35:00
10:55 PM,41.0,37.4,87,29.76,10.0,NW,11.5,-,N/A,,Overcast,310,2012-10-15 03:55:00
11:35 PM,41.0,37.4,87,29.77,10.0,NW,10.4,-,N/A,,Overcast,310,2012-10-15 04:35:00
11:55 PM,41.0,37.4,87,29.77,10.0,NW,12.7,16.1,N/A,,Overcast,320,2012-10-15 04:55:00